sat.trackr.live / text

‹ back to catalog

STARLINK-30789

NORAD 58166 · 2023-166S

PAYLOAD ACTIVE UNKNOWN

§ Identity

Operator
Country
US
Launch date
2023-10-29
Launch site
AFWTR
Launch vehicle
Mass (kg)
RCS (m²)

Purposes: comms

External: N2YO · Heavens-Above · Gunter

§ Orbital elements

Epoch: 2026-05-24T22:34:56.402976Z

Period
94.11 min
Inclination
53.1605°
Eccentricity
0.0000919
Mean motion
15.30193436 rev/d
Perigee alt
474.6 km
Apogee alt
475.9 km
Semi-major
6,853.4 km
B*
1.1814e-5
RAAN
225.4389°
Arg perigee
104.4297°
Mean anomaly
255.6806°
Rev number
14,485

§ Raw data

STARLINK-307891 58166U 23166S   26144.94093059 -.00000009  00000+0  11814-4 0  99982 58166  53.1605 225.4389 0000919 104.4297 255.6806 15.30193436144856

JSON: /api/v1/satellites/58166 · /tle

For live sub-satellite position, see the globe view (requires WebGL).

§ Visibility from observer

Set your observer location to see the next 7 days of passes ≥ 10°. The values pass through the URL so the page stays shareable.

No JS? Fill the form by hand. The geolocation button needs JavaScript.